This is the latest recevied weather packets stored in our database for station/object KE0FIN. If no packets are shown the sender has not sent any weather packets the latest 10 day(s).
| Time | Temp. | Humidity | Pressure | Rain* | Wind** | Luminosity | Snow |
|---|---|---|---|---|---|---|---|
| 1777298506 | 18.89° C | 78% | 1053.7 hPa | 0 mm | - | 118 W/m² | - |
| 1777298203 | 18.89° C | 79% | 1053.4 hPa | 0 mm | - | 156 W/m² | - |
| 1777297899 | 18.89° C | 79% | 1053.2 hPa | 0 mm | - | 47 W/m² | - |
| 1777297596 | 18.33° C | 81% | 1053.5 hPa | 0 mm | - | 146 W/m² | - |
| 1777297293 | 17.78° C | 82% | 1053.2 hPa | 0 mm | - | 77 W/m² | - |
| 1777296990 | 17.78° C | 83% | 1053.3 hPa | 0 mm | - | 64 W/m² | - |
| 1777296681 | 17.78° C | 83% | 1053.2 hPa | 0 mm | - | 67 W/m² | - |
| 1777296366 | 17.78° C | 84% | 1053.1 hPa | 0 mm | - | 74 W/m² | - |
| 1777296062 | 17.22° C | 84% | 1053.1 hPa | 0 mm | - | 70 W/m² | - |
| 1777295759 | 17.22° C | 85% | 1053 hPa | 0 mm | - | 64 W/m² | - |
| 1777295457 | 16.67° C | 86% | 1052.8 hPa | 0 mm | - | 46 W/m² | - |
| 1777295155 | 16.67° C | 87% | 1052.6 hPa | 0 mm | - | 38 W/m² | - |
| 1777294852 | 16.67° C | 87% | 1052.7 hPa | 0 mm | - | 37 W/m² | - |
| 1777294552 | 16.67° C | 87% | 1052.7 hPa | 0 mm | - | 34 W/m² | - |
| 1777294249 | 16.67° C | 87% | 1052.5 hPa | 0 mm | - | 31 W/m² | - |
| 1777293946 | 16.67° C | 87% | 1052.4 hPa | 0 mm | - | 28 W/m² | - |
| 1777293641 | 16.67° C | 88% | 1052.6 hPa | 0 mm | - | 31 W/m² | - |
| 1777293337 | 16.67° C | 89% | 1052.5 hPa | 0 mm | - | 28 W/m² | - |
| 1777293032 | 16.67° C | 89% | 1052.3 hPa | 0 mm | - | 29 W/m² | - |
| 1777292732 | 16.67° C | 89% | 1052.4 hPa | 0 mm | - | 19 W/m² | - |
| 1777292428 | 16.67° C | 89% | 1052.2 hPa | 0 mm | - | 10 W/m² | - |
| 1777292125 | 16.67° C | 89% | 1052.2 hPa | 0 mm | - | 8 W/m² | - |
| 1777291821 | 16.67° C | 90% | 1051.9 hPa | 0 mm | - | 8 W/m² | - |
| 1777291518 | 16.67° C | 91% | 1052.2 hPa | 0 mm | - | 6 W/m² | - |
| 1777291215 | 16.67° C | 91% | 1051.7 hPa | 0 mm | - | 6 W/m² | - |
* Rain latest hour (hover to see other rain measurements)
** Current wind speed in m/s (hover to see current wind gust speed)